Location: Balmoral
(33.0667°S, 151.5833°E)
Time: 23:52:12
(UTC+00:00)

CZ-2C R/B - Pass Details

Date: 18 September 2020
Orbit: 391 x 588 km, 35.0° (Epoch: 21 October)

Event Time Altitude Azimuth Distance (km) Brightness Sun altitude
Exits shadow 18:04:30 16° 14° (NNE) 1,347 3.3 -22.2°
Maximum altitude 18:05:28 17° 33° (NNE) 1,303 3.4 -22.0°
Drops below altitude 10° 18:08:05 10° 74° (ENE) 1,728 4.7 -21.5°
Sets 18:10:59 0° 94° (E) 2,667 6.3 -20.9°
